Date,TemperatureHighF,TemperatureAvgF,TemperatureLowF,DewpointHighF,DewpointAvgF,DewpointLowF,HumidityHigh,HumidityAvg,HumidityLow,PressureMaxIn,PressureMinIn,WindSpeedMaxMPH,WindSpeedAvgMPH,GustSpeedMaxMPH,PrecipitationSumIn
2013-3-1,47,37,27,29,26,22,82,63,49,0.00,40.00,15,7,23,0.00
2013-3-2,44,37,31,31,25,18,89,64,42,0.00,40.00,11,7,22,0.00
2013-3-3,41,33,26,18,14,11,58,47,29,0.00,40.00,17,7,25,0.00
2013-3-4,58,40,23,30,19,13,68,46,25,0.00,40.00,9,4,18,0.00
2013-3-5,53,44,32,50,37,24,96,78,57,0.00,40.00,19,5,35,0.66
2013-3-6,38,34,29,27,22,16,84,61,49,0.00,40.00,19,10,32,0.41
2013-3-7,61,41,25,31,26,22,93,60,24,0.00,40.00,9,4,19,0.00
2013-3-8,64,43,26,30,25,23,93,56,22,0.00,40.00,8,3,11,0.00
2013-3-9,62,45,27,34,28,25,94,57,29,0.00,40.00,9,4,14,0.00
2013-3-10,64,53,40,36,34,32,83,50,33,0.00,40.00,9,5,17,0.00
2013-3-11,58,53,50,55,48,35,100,83,48,0.00,40.00,9,6,17,1.42
2013-3-12,62,51,40,53,38,26,100,67,29,0.00,40.00,13,7,20,1.56
2013-3-13,50,43,35,29,23,15,68,46,30,0.00,40.00,17,8,33,0.01
2013-3-14,54,39,27,19,14,7,60,39,19,0.00,40.00,13,6,19,0.00
2013-3-15,71,52,31,40,32,11,86,51,27,0.00,40.00,16,7,29,0.00
2013-3-16,74,64,55,46,41,37,57,44,32,0.00,40.00,16,10,27,0.00
2013-3-17,71,62,53,51,45,39,70,53,42,0.00,40.00,11,7,21,0.00
2013-3-18,59,46,43,48,44,42,100,92,61,0.00,40.00,8,5,15,0.55
2013-3-19,61,51,42,47,32,14,100,56,23,0.00,40.00,15,6,26,0.39
2013-3-20,57,45,36,29,16,8,57,33,17,0.00,40.00,11,5,24,0.00
2013-3-21,45,36,28,31,13,7,80,40,23,0.00,40.00,17,8,26,0.00
2013-3-22,49,38,27,26,20,13,70,48,29,0.00,40.00,6,3,13,0.00
2013-3-23,52,45,40,48,41,26,100,85,48,0.00,40.00,7,3,12,0.44
2013-3-24,48,46,44,46,45,43,100,96,88,0.00,40.00,8,5,23,1.15
2013-3-25,44,36,32,44,23,19,100,58,49,0.00,40.00,18,14,35,0.01
2013-3-26,43,35,29,25,21,20,75,57,43,0.00,40.00,12,8,22,0.00
2013-3-27,53,39,28,25,21,18,72,51,26,0.00,40.00,13,6,24,0.00
2013-3-28,61,54,40,23,21,16,47,28,19,0.00,40.00,9,6,24,0.00
2013-3-29,61,45,30,35,27,19,83,51,28,0.00,40.00,6,3,15,0.00
2013-3-30,67,55,44,53,40,34,97,59,37,0.00,40.00,9,4,17,0.07
2013-3-31,65,58,53,57,52,-100,100,88,58,0.00,40.00,10,6,22,0.95